GFSFLT1_sfc_dewp_000.txt.gz
Dewpoint
44 42 41 45 50 54 54 48 47 51 52 52 47 46 46 45 43 42 45 44 48 49 48 51 52 50 49 48 50 48 45 44
37 39 41 46 53 53 51 49 48 46 44 41 40 41 41 42 42 45 46 45 46 47 46 47 49 48 49 51 50 50 48 46
36 39 43 44 48 48 45 42 42 41 40 42 43 44 42 43 42 44 43 43 42 41 45 45 45 45 47 49 50 48 48 48
35 39 42 44 44 44 42 42 42 43 42 40 41 41 40 39 39 38 39 41 40 41 43 44 45 44 42 45 46 47 44 46
33 35 39 42 45 45 43 42 41 41 42 41 43 39 38 39 40 39 38 39 39 39 41 43 44 43 43 42 39 43 44 42
37 39 39 41 43 44 44 42 41 41 40 42 40 41 40 40 39 39 37 36 38 38 41 43 43 42 43 45 45 45 44 43
38 39 39 40 44 45 44 41 40 42 41 41 43 44 42 39 37 35 34 35 36 38 39 42 43 42 42 41 43 43 43 43
37 38 38 41 42 43 40 40 38 41 42 39 40 40 40 39 37 35 36 35 35 38 41 41 39 40 40 41 42 42 40 39
38 37 39 40 42 42 42 39 38 38 38 37 37 40 40 37 37 37 36 36 38 41 40 39 40 40 40 41 40 38 39 39
36 37 39 41 41 41 43 41 38 39 40 41 41 42 40 39 38 37 36 39 37 39 40 38 35 36 36 37 37 38 37 37
37 37 38 40 41 43 44 43 41 41 41 40 39 39 38 37 37 37 37 38 39 37 35 34 34 36 38 38 37 36 36 35
37 38 39 40 42 42 42 42 42 41 39 39 38 38 36 36 36 37 37 38 35 34 34 34 35 37 38 38 36 34 30 30
37 38 39 40 41 41 41 41 39 38 36 36 36 36 35 35 36 37 37 37 37 36 37 38 37 37 34 32 31 29 27 25
36 38 39 39 39 38 38 39 38 36 35 34 34 36 36 36 37 37 38 38 38 39 37 36 36 34 33 29 26 25 26 26
38 39 39 37 37 37 39 38 37 36 35 34 35 36 38 38 38 36 35 34 33 32 30 30 30 27 25 24 23 24 24 23
38 37 37 36 36 37 38 37 35 36 35 33 33 33 31 31 30 30 29 28 24 23 23 23 24 22 18 26 22 23 24 24
37 35 34 32 33 36 37 33 34 36 33 31 29 30 28 27 27 26 24 22 21 22 22 22 23 18 29 28 28 24 23 21
36 34 31 32 35 39 33 32 34 34 30 28 29 29 25 24 21 19 20 22 23 23 23 23 24 24 25 25 25 22 21 21
32 30 29 32 36 35 33 31 32 31 29 27 28 26 23 20 19 19 21 22 22 22 23 23 22 19 24 23 23 22 23 23

GFSFLT1_sfc_dewp_003.txt.gz
Dewpoint
40 45 44 45 45 47 50 52 45 47 49 50 45 45 45 44 43 44 46 46 49 50 49 53 53 51 51 52 55 51 52 50
44 42 43 46 48 48 47 49 50 46 44 43 41 41 42 43 43 45 47 46 46 47 45 47 49 48 51 53 52 52 51 51
39 41 43 44 49 49 49 47 43 41 41 42 44 45 43 43 43 44 43 44 44 43 45 44 46 44 50 51 52 49 49 50
38 41 45 47 47 46 43 43 43 43 42 40 41 41 41 39 40 41 42 45 41 41 42 43 47 46 44 49 48 48 44 46
34 38 41 45 46 45 43 42 41 41 44 41 43 40 39 41 42 41 40 41 38 36 38 41 45 45 46 45 40 47 46 43
37 38 40 42 45 46 45 43 41 42 41 43 42 43 44 44 43 43 43 40 38 36 38 41 44 41 44 46 46 43 41 42
37 39 40 42 45 45 45 41 39 42 42 43 45 46 45 40 39 37 36 37 36 38 36 40 43 43 41 42 42 43 43 41
37 37 38 41 42 43 41 40 39 41 43 43 40 39 40 40 38 37 37 35 35 38 40 41 38 39 39 41 44 42 41 40
38 38 40 40 41 42 44 42 40 39 41 40 41 40 39 38 38 37 36 36 37 38 39 39 39 38 41 42 39 40 39 39
37 37 39 41 41 42 44 43 41 41 42 42 41 40 39 38 38 38 36 38 34 37 38 37 39 39 40 40 39 39 40 39
36 37 39 40 41 42 43 43 42 42 41 40 37 38 38 37 36 36 36 36 36 37 39 38 38 39 38 38 37 38 37 37
37 38 39 39 40 41 42 42 42 39 38 37 38 37 36 35 35 36 37 38 37 39 39 39 38 38 38 38 36 35 35 36
36 37 38 39 40 40 41 41 39 38 37 36 34 34 34 34 35 36 36 37 38 38 38 37 38 39 37 36 35 31 30 29
37 38 39 39 39 40 40 40 39 38 36 33 32 33 33 34 34 34 34 34 33 33 32 33 31 30 28 27 26 28 28 27
38 37 37 37 38 39 38 39 39 38 34 32 32 32 32 31 30 30 29 28 26 23 23 23 23 21 21 21 21 23 22 21
38 37 36 35 34 34 34 38 38 36 35 33 32 30 29 28 27 27 26 24 21 20 21 22 22 21 20 26 24 24 23 22
38 35 33 32 31 31 33 36 34 34 35 32 30 29 28 27 25 24 22 21 20 21 21 21 22 17 28 26 25 23 20 19
36 34 31 29 28 29 31 31 32 33 32 30 27 28 29 25 23 19 19 20 22 22 22 21 22 23 25 25 25 22 20 20
33 30 27 24 24 26 30 30 29 29 28 27 27 29 28 25 22 19 20 21 22 21 22 23 23 21 27 25 23 21 20 20

GFSFLT1_sfc_dewp_006.txt.gz
Dewpoint
39 41 44 48 49 51 55 57 54 55 54 54 51 51 51 52 52 51 52 51 52 53 52 54 56 53 52 52 53 51 51 50
46 49 50 50 53 50 53 56 56 52 52 50 49 49 49 50 49 50 49 51 50 50 49 50 49 49 49 49 48 47 47 49
42 47 50 54 53 53 54 52 49 47 47 49 49 49 48 48 49 49 50 50 48 44 48 47 47 47 47 48 49 46 45 46
41 45 49 51 50 50 45 45 46 48 49 45 46 47 45 45 45 46 47 47 45 46 46 47 48 46 45 45 46 45 43 43
38 43 46 48 49 50 46 46 45 46 47 47 46 44 45 47 49 47 47 46 46 43 43 46 46 46 45 45 42 45 44 41
39 41 44 45 49 50 49 46 44 45 46 46 46 48 48 48 48 47 45 45 44 43 42 43 45 44 44 45 43 44 44 43
39 41 44 45 49 49 48 45 43 45 46 48 47 46 45 44 44 43 41 41 41 42 42 43 44 44 42 44 44 43 41 41
40 40 41 43 46 47 47 46 44 45 45 44 45 45 45 44 43 41 40 39 40 40 42 42 42 42 43 43 43 43 41 40
40 40 42 43 45 46 47 45 43 43 46 45 46 45 42 42 42 40 40 40 40 40 41 41 41 41 41 41 40 41 40 41
38 40 42 43 44 46 47 45 44 45 47 46 44 43 43 42 41 41 40 41 38 39 41 40 40 40 40 39 39 38 38 39
40 39 42 43 43 46 48 46 43 43 41 41 40 40 41 41 41 40 40 39 38 39 39 39 39 39 38 38 38 38 37 38
39 39 41 41 43 43 45 43 41 41 40 40 41 41 40 39 39 39 38 38 37 36 36 37 37 37 39 39 38 36 34 33
39 40 40 40 41 42 41 42 42 41 40 40 38 38 37 36 38 36 36 36 36 35 35 34 35 34 36 36 36 35 33 32
38 39 39 38 38 39 38 40 41 41 39 37 36 36 35 35 34 34 34 34 33 32 29 28 26 27 26 26 26 27 26 25
39 39 38 36 36 36 36 37 41 40 38 36 36 36 33 32 33 31 32 31 29 27 27 27 28 25 23 25 24 25 25 23
38 38 37 35 34 34 32 34 37 39 38 36 37 35 33 33 33 31 31 30 26 26 25 26 27 24 23 26 24 23 23 22
35 35 33 31 31 29 28 29 32 38 33 35 35 34 32 33 32 32 29 28 26 26 26 26 26 20 28 27 25 23 22 21
34 32 30 28 25 24 24 26 28 32 32 32 35 37 35 35 32 28 25 26 27 27 27 26 26 26 29 27 25 22 21 20
31 27 26 25 25 23 24 21 23 24 26 32 35 36 34 32 31 30 27 26 27 26 27 27 26 24 29 28 26 23 21 20

GFSFLT1_sfc_dewp_009.txt.gz
Dewpoint
44 46 48 50 55 59 56 59 57 53 53 51 50 48 48 48 48 47 49 48 48 47 46 47 48 48 48 47 47 47 47 47
49 50 52 54 55 55 55 55 53 52 48 48 47 45 45 46 45 48 46 45 45 45 45 47 46 46 45 45 46 44 44 46
46 46 45 48 51 52 50 49 49 47 46 47 46 46 46 45 45 46 47 47 45 44 44 45 45 44 43 42 43 44 43 44
45 45 45 45 47 44 43 43 43 45 46 42 42 42 43 44 46 46 46 47 44 41 42 43 44 44 42 41 43 42 42 42
43 44 44 45 45 43 43 42 41 43 44 43 42 43 44 46 47 46 46 43 41 41 41 41 43 42 41 43 43 43 43 41
42 43 44 45 44 43 43 42 41 43 42 42 45 44 44 45 45 41 40 40 40 40 41 41 41 43 41 43 42 41 41 40
41 43 44 43 43 42 41 41 41 42 43 45 43 40 42 42 40 39 39 39 40 39 40 40 41 41 42 42 42 40 40 41
39 41 42 43 43 43 43 43 42 43 43 43 42 41 40 40 39 38 38 40 38 40 40 40 40 40 41 40 40 40 40 39
38 38 39 40 41 41 43 42 42 43 45 42 41 41 41 41 39 38 39 39 39 39 40 40 40 40 40 39 38 38 39 39
36 40 41 41 42 44 44 43 42 41 39 40 40 42 41 40 38 39 39 38 37 39 39 38 38 39 39 39 38 38 38 37
39 40 41 41 42 44 43 42 41 41 39 41 40 40 39 38 38 37 36 36 37 36 36 36 36 37 38 38 37 37 36 36
39 39 40 40 41 42 42 41 41 40 39 40 38 38 36 37 36 35 35 34 34 35 36 35 35 35 35 36 36 36 36 35
39 39 39 38 38 38 37 38 40 40 39 39 36 36 33 33 33 33 32 32 34 34 32 29 28 27 28 28 31 31 28 26
39 39 38 37 36 36 36 37 39 39 39 37 36 36 32 31 30 32 31 30 28 27 26 27 27 28 27 26 27 27 26 25
37 37 37 35 34 34 34 33 36 39 39 38 39 39 35 32 33 32 29 28 25 25 25 26 27 27 26 26 25 25 24 23
35 34 34 32 32 30 27 28 32 32 38 37 37 38 37 37 37 34 32 29 26 24 24 26 26 25 24 26 25 23 23 23
34 34 32 28 25 24 25 26 27 28 25 26 36 38 38 39 38 36 31 27 24 24 25 26 26 23 28 27 25 23 22 22
33 32 28 25 24 25 24 23 25 25 25 30 37 37 37 37 37 34 30 27 24 25 26 26 25 25 30 28 26 24 22 21
32 30 24 23 22 22 22 22 23 25 30 32 34 35 35 37 37 31 28 27 24 25 25 27 26 25 29 31 30 25 23 22

GFSFLT1_sfc_dewp_015.txt.gz
Dewpoint
56 57 57 57 57 58 59 59 59 56 56 52 50 46 47 46 46 45 46 47 47 45 46 46 45 43 42 41 40 41 42 42
52 53 55 54 54 56 56 56 55 52 49 49 49 50 49 48 47 47 45 45 43 42 43 44 43 41 40 40 41 41 41 42
48 50 50 53 53 51 49 50 48 47 50 51 52 49 46 48 46 43 42 42 41 40 41 41 41 41 41 40 41 41 41 42
47 49 48 48 45 44 42 43 43 46 49 47 44 44 45 45 44 40 40 41 41 41 41 41 42 42 41 41 41 41 40 41
43 43 42 42 42 41 40 41 41 42 42 42 42 43 43 45 42 38 39 41 41 41 41 41 41 41 40 40 40 39 39 38
41 41 41 41 41 40 41 42 42 42 42 43 44 42 43 41 39 38 39 41 41 41 41 40 40 40 39 38 38 38 38 37
42 42 42 41 41 41 42 43 43 43 41 41 40 39 38 37 37 38 41 41 41 42 40 39 39 39 38 37 37 36 36 37
42 42 42 42 43 43 41 41 40 40 39 39 39 38 37 36 37 39 40 40 41 38 38 37 36 38 38 37 36 35 35 34
41 41 41 42 41 40 39 38 38 38 38 38 38 38 40 39 38 39 40 39 38 38 37 36 35 36 36 36 36 35 34 34
40 41 41 41 41 41 40 39 38 38 38 38 38 39 40 39 39 38 38 37 37 37 37 36 36 35 36 36 35 34 34 33
39 40 41 41 39 40 40 40 40 39 39 39 39 38 38 39 38 37 36 36 37 35 35 35 35 35 34 34 33 32 33 33
38 39 39 38 37 36 36 36 37 39 40 39 39 39 37 37 37 36 36 35 34 35 36 35 33 29 28 28 29 30 29 26
38 37 36 35 34 34 32 31 32 34 35 36 37 37 36 35 34 35 34 35 35 32 34 34 29 28 27 27 26 27 25 24
36 36 34 34 33 30 27 28 27 29 29 31 32 34 36 37 33 33 34 32 32 35 35 33 28 27 27 26 25 24 23 24
34 33 33 32 29 25 25 25 26 26 25 29 33 35 35 34 34 33 33 34 36 35 36 31 28 28 26 24 23 24 24 23
33 32 32 30 25 24 23 23 24 25 25 30 34 36 36 36 36 36 36 36 36 38 29 29 28 26 24 24 24 24 23 23
31 31 31 26 23 21 21 21 23 25 25 31 34 35 36 36 36 36 36 36 35 30 31 26 25 24 29 29 30 26 25 24
30 30 27 23 22 21 19 20 23 24 25 32 33 34 35 33 35 35 35 33 36 29 25 26 25 25 30 29 29 27 25 24
30 25 21 22 20 19 21 20 22 23 27 30 32 32 32 32 33 34 33 32 30 26 26 25 25 25 25 26 26 23 21 21

GFSFLT1_sfc_dewp_018.txt.gz
Dewpoint
55 56 57 58 58 59 59 58 59 58 56 53 49 48 48 50 52 47 45 45 46 45 45 44 42 40 41 40 40 41 41 41
54 55 55 55 56 58 58 57 57 56 49 49 48 49 51 48 44 44 44 42 41 41 42 41 42 41 41 41 41 41 41 42
51 52 52 53 54 55 55 55 51 48 49 50 51 49 46 46 43 41 41 41 41 40 41 41 41 40 40 41 41 40 41 41
50 51 49 47 45 46 45 45 46 47 48 45 44 44 45 44 41 38 40 41 41 41 40 40 40 39 40 41 40 39 38 39
44 42 41 41 41 40 41 41 41 42 43 43 43 43 42 42 39 38 39 40 40 39 40 40 41 40 39 39 39 38 37 36
41 39 40 41 41 41 42 43 43 43 43 43 42 42 41 39 38 38 39 40 41 41 41 39 39 39 38 37 36 35 36 35
41 41 41 41 42 43 43 41 40 40 39 40 39 37 37 36 36 37 40 40 40 41 39 38 38 38 37 36 35 34 34 34
41 41 42 43 42 41 40 39 38 38 38 38 38 37 37 36 36 37 37 39 40 39 37 36 35 37 36 36 35 34 33 33
41 41 41 40 39 38 38 38 37 38 38 37 37 37 39 39 38 38 39 39 39 38 37 35 34 35 35 36 36 35 34 34
41 41 40 40 40 40 39 38 38 38 38 39 38 38 38 39 39 38 38 38 37 37 36 34 35 35 35 36 35 35 34 34
40 40 40 39 39 40 41 40 39 39 39 39 39 39 38 37 37 37 36 36 36 35 35 35 35 35 35 34 34 32 32 32
39 39 38 37 36 36 36 34 36 35 34 36 35 35 35 35 35 35 35 35 35 34 34 34 35 33 30 29 28 28 30 27
37 37 36 35 34 33 30 30 28 29 31 31 30 33 34 36 34 34 35 34 35 35 33 35 35 32 28 26 27 27 26 24
37 36 35 35 33 30 27 28 25 26 26 28 29 32 33 33 33 33 33 33 33 33 35 35 34 31 27 28 26 25 23 24
33 34 33 33 30 27 26 25 25 24 24 26 30 32 33 33 33 34 34 34 33 35 35 35 30 28 26 24 23 24 24 24
32 32 32 30 26 25 23 23 24 24 25 25 30 33 35 35 35 35 35 35 35 37 35 31 28 26 23 24 25 26 25 25
31 31 31 30 25 22 21 21 22 24 25 25 31 33 34 35 34 34 35 34 34 34 28 26 25 24 30 30 30 27 26 24
30 30 30 24 23 21 19 20 22 23 25 26 31 32 32 33 32 33 33 32 32 29 25 24 25 27 27 26 28 23 21 20
31 30 23 22 21 19 20 20 21 23 23 27 30 31 31 31 32 31 31 31 30 26 25 25 25 21 23 23 23 23 21 20

GFSFLT1_sfc_dewp_024.txt.gz
Dewpoint
54 54 55 56 59 61 61 61 61 61 61 60 53 50 51 51 50 48 47 47 48 47 46 46 44 43 44 45 45 43 41 39
55 57 58 58 60 60 61 61 62 60 59 55 51 51 50 47 46 46 46 45 45 45 43 45 46 43 45 44 40 39 36 38
55 57 58 58 59 60 60 60 60 57 53 51 50 50 49 46 45 46 44 44 43 43 44 42 43 39 42 43 42 38 35 35
54 56 58 59 58 59 58 57 57 51 51 51 51 50 47 44 44 44 43 44 42 42 42 41 40 39 36 41 40 38 34 31
53 55 56 58 58 58 53 51 49 50 49 47 47 45 45 45 44 43 42 43 40 38 40 42 42 40 40 39 34 36 34 29
48 49 51 53 55 52 50 48 47 47 48 48 46 44 43 41 41 40 41 41 41 41 41 43 43 42 40 38 36 35 32 31
43 44 45 46 48 49 48 46 45 45 44 44 43 41 36 34 36 36 34 35 37 39 40 43 43 41 39 37 38 36 35 32
42 42 41 43 46 47 46 44 43 43 41 38 38 37 37 34 35 34 36 32 32 34 37 37 38 40 38 39 37 37 35 31
41 41 42 44 45 45 44 43 39 37 36 37 39 36 35 34 34 31 30 31 30 32 34 36 39 39 39 37 36 36 36 34
41 43 44 44 44 45 44 38 35 36 42 44 40 37 32 30 31 32 29 30 27 31 34 35 37 38 39 37 35 36 36 35
42 43 44 44 44 43 41 40 38 40 40 37 32 30 30 31 31 29 29 30 31 31 32 33 35 36 37 36 34 35 34 32
43 43 44 43 42 40 41 39 39 37 33 31 31 29 30 30 29 29 30 32 32 31 32 33 33 33 34 35 36 35 32 29
43 43 42 40 39 39 38 37 35 32 30 29 27 28 27 28 28 30 32 32 32 32 33 33 32 33 37 38 34 29 28 28
42 42 39 37 37 38 34 34 32 29 26 25 25 26 27 28 29 32 33 33 31 32 32 33 32 35 35 33 31 29 28 28
42 40 39 37 36 34 31 33 31 28 24 22 24 28 29 30 31 33 33 32 32 32 33 33 34 32 32 30 27 30 29 27
41 39 38 37 35 32 31 32 31 27 25 23 27 29 30 31 34 34 33 33 32 32 32 33 33 31 28 30 28 28 26 24
39 39 37 34 34 32 31 32 28 26 24 26 26 28 29 30 33 32 31 32 31 31 31 32 31 25 28 27 26 24 23 19
38 37 35 33 33 34 33 28 26 25 25 25 25 27 28 30 29 28 28 30 32 31 32 31 29 29 23 23 23 21 20 19
38 37 34 32 33 32 28 23 23 25 24 24 24 26 27 27 28 28 30 31 30 30 31 29 29 24 22 21 22 22 21 20

GFSFLT1_sfc_dewp_027.txt.gz
Dewpoint
50 48 48 49 55 60 60 61 60 61 62 60 58 55 53 53 52 49 50 49 49 49 48 48 48 46 46 46 46 43 40 37
53 53 54 55 59 60 61 61 60 60 57 55 54 53 51 50 48 48 48 47 46 47 45 46 46 45 44 45 43 41 36 36
52 54 55 57 60 60 60 59 60 60 58 57 53 52 49 47 47 48 46 46 45 43 46 44 43 40 40 39 41 38 36 35
52 54 57 58 58 60 59 58 60 57 53 50 51 50 48 46 46 45 45 45 42 42 42 41 41 39 37 39 39 39 34 34
52 54 57 58 59 60 59 58 53 50 51 49 49 45 45 46 46 44 43 44 41 38 37 40 42 40 40 39 35 37 37 33
52 53 55 58 58 58 55 51 49 50 48 48 48 46 46 43 42 40 39 39 38 37 39 40 41 40 40 40 39 38 37 35
48 50 51 53 55 52 51 48 46 48 48 47 47 44 38 35 37 35 34 34 34 34 33 37 37 37 39 38 39 39 39 36
44 45 46 49 49 49 48 45 45 46 45 41 39 39 38 40 36 33 32 29 29 31 33 34 33 35 37 38 40 41 37 36
42 42 43 45 47 47 45 44 44 42 39 37 39 36 36 34 32 31 31 30 29 31 32 32 33 35 36 40 39 37 39 39
41 41 43 44 46 46 46 44 41 37 39 40 39 40 35 30 31 33 30 30 27 30 32 32 32 33 35 38 37 37 37 38
40 41 44 45 45 47 47 43 38 39 37 39 35 37 31 31 32 31 29 31 31 32 32 31 32 33 33 34 34 35 36 37
41 42 44 44 45 46 43 40 39 37 35 34 37 33 31 31 31 30 30 32 31 31 30 30 30 30 31 34 37 37 36 36
41 43 44 44 44 43 42 40 37 35 33 37 35 31 29 30 30 28 31 31 32 31 29 29 29 29 31 35 33 36 34 32
41 42 43 43 43 42 41 39 35 34 32 33 29 29 29 29 29 29 30 31 31 31 29 30 29 30 29 31 33 31 30 30
41 42 43 42 42 41 39 36 37 34 33 28 27 27 29 30 29 29 31 31 31 30 30 30 31 30 29 29 28 30 31 29
41 42 42 41 40 40 36 36 37 34 31 27 27 28 30 29 29 30 32 32 30 30 29 29 31 30 27 30 28 27 27 25
40 41 42 41 39 38 34 35 34 35 30 28 26 28 28 28 28 31 32 29 28 29 29 29 31 26 28 27 25 25 24 21
38 40 41 40 39 38 33 34 37 32 28 25 26 27 26 26 26 26 26 28 30 30 29 30 31 30 26 24 23 22 23 22
37 39 40 40 38 35 35 35 30 28 26 25 25 24 23 25 25 25 27 28 30 29 29 30 30 27 25 23 23 23 23 23

GFSFLT1_sfc_dewp_030.txt.gz
Dewpoint
45 45 47 50 58 59 60 62 62 61 61 60 59 58 56 55 55 53 53 52 52 52 51 50 50 49 48 48 47 45 42 40
49 50 52 55 60 60 60 61 60 60 59 58 56 55 54 54 53 52 51 51 49 50 50 49 49 46 45 43 42 42 41 41
52 52 55 59 60 61 61 60 59 60 59 57 57 54 54 52 51 51 50 49 48 48 48 46 45 43 43 43 42 41 40 40
51 53 56 60 60 61 60 60 60 60 59 57 55 54 51 49 49 49 48 47 45 44 43 44 44 44 43 43 41 40 37 38
51 53 57 58 59 60 60 60 60 59 58 53 53 49 47 49 50 49 47 47 44 41 41 43 44 44 43 43 39 40 39 37
51 56 57 58 59 60 60 60 58 54 52 53 52 49 50 48 47 45 42 44 43 40 41 43 42 42 42 42 41 39 39 38
50 56 57 56 59 60 60 58 51 52 51 52 52 49 45 43 42 41 42 41 40 40 39 39 39 39 39 40 41 40 38 38
50 52 54 56 57 55 53 49 48 50 51 48 46 43 44 42 42 40 37 36 37 37 36 37 37 37 39 40 40 39 39 38
48 49 51 53 51 51 50 47 46 47 46 44 44 43 42 40 40 35 37 35 35 35 35 36 36 36 37 38 39 40 40 38
45 45 48 49 49 50 49 46 45 45 43 43 43 41 38 38 35 38 38 35 32 36 36 36 36 36 37 37 38 39 39 38
42 42 46 47 48 49 51 48 45 42 43 44 41 40 38 35 37 38 35 34 34 35 35 35 35 35 35 35 37 38 38 38
42 42 44 46 47 48 48 47 42 41 40 41 40 38 39 36 38 37 35 35 34 34 34 33 33 33 34 34 34 34 35 36
42 42 43 45 46 46 47 46 41 40 40 38 38 39 36 36 36 36 36 35 36 34 34 32 33 33 33 33 33 34 34 33
42 42 43 44 45 46 46 45 42 39 35 35 35 36 36 34 35 35 34 35 35 35 33 33 33 33 32 32 32 32 33 33
40 41 43 44 45 45 44 44 42 37 35 34 36 36 36 35 34 34 34 35 34 34 33 34 34 32 31 31 30 31 31 29
39 41 43 44 45 45 43 43 39 39 36 35 34 37 33 34 34 34 34 36 34 33 33 34 33 32 28 31 28 27 28 26
37 40 42 44 44 43 43 40 39 39 36 36 34 33 33 34 33 33 34 35 33 32 33 33 33 28 31 29 26 24 25 25
34 39 41 44 45 44 42 38 39 37 37 34 34 32 32 32 30 29 30 32 33 33 33 32 32 29 30 27 24 22 24 25
35 36 40 42 44 42 41 35 36 38 34 32 31 30 28 27 29 30 31 32 32 33 32 32 32 29 30 27 24 22 24 24

GFSFLT1_sfc_dewp_033.txt.gz
Dewpoint
47 48 51 54 54 55 60 60 59 59 59 59 58 55 55 55 53 52 52 51 51 50 48 48 47 46 44 43 42 42 40 39
44 46 53 55 57 60 60 59 59 59 58 57 55 54 53 53 52 51 51 48 48 48 47 45 43 42 40 41 40 39 39 39
48 53 56 56 58 59 60 59 58 59 58 58 55 53 52 51 49 49 48 47 47 45 44 42 42 41 41 41 39 39 38 37
51 55 58 59 59 59 59 59 58 59 59 57 55 52 49 48 47 47 46 45 44 44 43 42 42 42 41 40 40 37 35 36
51 56 58 59 59 59 59 59 58 59 59 56 51 47 45 47 48 46 44 44 42 39 41 42 42 42 40 41 40 38 36 35
51 55 58 58 59 59 60 60 59 59 59 54 50 48 46 47 46 45 45 44 42 38 38 36 36 38 37 37 38 39 38 36
54 56 57 58 58 59 59 59 59 57 51 51 48 46 42 40 39 39 41 39 38 36 35 35 35 35 36 37 37 39 37 36
56 56 56 57 58 58 58 57 50 49 46 42 41 40 40 38 38 38 34 35 35 33 34 35 34 34 35 36 37 38 38 37
55 55 55 56 57 57 55 48 48 46 42 40 40 39 40 39 37 35 36 35 35 34 35 33 33 34 34 35 36 37 38 38
51 54 55 54 52 50 48 46 46 44 42 40 40 39 37 35 35 35 37 34 33 34 33 32 32 33 33 33 36 36 36 36
46 48 51 50 49 49 48 46 45 42 41 40 37 35 34 34 35 35 34 33 33 33 33 33 32 32 33 34 35 34 35 36
44 44 47 48 48 48 47 46 42 41 40 39 37 35 34 35 35 36 35 34 33 32 33 32 30 31 32 32 32 32 33 34
42 42 45 46 47 47 47 46 40 39 39 38 36 36 35 35 35 36 37 34 34 33 34 31 31 31 32 33 32 32 32 32
41 41 43 45 45 46 46 45 40 39 36 34 36 36 35 35 34 35 34 33 34 34 32 31 31 32 31 32 31 31 32 31
42 41 42 44 45 46 46 44 39 36 34 33 36 36 37 34 35 32 32 33 33 32 31 32 33 33 31 31 31 30 29 28
41 41 42 44 45 46 46 44 39 36 35 35 37 38 35 36 34 34 34 34 32 32 32 32 34 33 30 30 28 27 26 25
33 39 45 45 46 46 45 40 38 37 36 37 37 37 35 35 32 31 31 32 33 33 32 33 32 28 33 31 27 24 24 24
32 34 40 45 46 46 43 40 41 39 40 38 38 39 35 31 30 29 29 29 30 31 32 32 32 30 31 30 28 23 23 23
32 35 36 41 46 46 42 40 38 39 38 34 33 32 30 31 29 29 31 32 32 32 32 32 33 29 32 31 27 22 22 24

GFSFLT1_sfc_dewp_036.txt.gz
Dewpoint
57 58 57 57 56 55 59 58 58 57 58 58 56 54 54 54 52 52 51 52 51 49 48 47 45 42 41 40 39 39 39 38
53 54 55 55 54 58 59 58 58 57 57 56 54 53 53 53 52 51 51 49 50 47 44 43 42 40 41 40 39 38 38 36
50 52 53 53 54 58 59 58 58 57 57 56 54 53 53 52 51 51 48 48 46 45 43 41 41 41 40 40 38 38 38 36
47 51 53 53 58 59 58 58 57 58 58 57 53 51 49 48 47 47 46 46 45 43 42 42 42 41 40 40 38 36 35 36
51 53 54 56 58 60 59 58 58 58 58 56 52 50 48 47 47 46 44 44 43 42 42 43 42 40 38 39 39 38 36 34
54 55 56 57 58 58 59 59 58 58 58 56 52 48 47 48 47 45 44 43 40 39 38 36 37 37 36 35 36 36 38 36
55 58 58 58 58 59 59 58 58 58 58 56 51 48 46 47 45 44 43 38 38 36 35 35 35 35 35 36 36 38 37 36
56 57 58 58 58 58 58 59 58 58 55 53 49 46 45 45 42 41 37 37 36 35 35 35 35 35 34 34 34 35 36 36
55 57 57 58 58 58 58 58 54 48 45 45 43 41 41 40 40 37 38 36 35 35 35 35 34 34 33 33 35 37 36 36
55 56 56 57 57 57 56 51 47 42 40 40 40 40 40 40 42 42 39 36 35 36 34 33 34 33 32 33 36 35 34 35
55 55 55 55 55 54 50 47 44 41 40 40 38 40 40 40 38 38 34 35 36 34 34 33 33 31 32 34 35 33 34 34
54 54 54 53 51 49 47 46 43 40 39 38 37 35 36 36 36 36 35 35 35 34 35 33 31 30 31 34 33 33 32 33
51 52 53 51 50 48 47 45 43 40 39 37 35 36 41 38 36 37 36 35 36 35 35 33 31 31 31 32 33 32 31 32
45 47 50 50 49 48 47 45 43 40 39 37 35 35 34 34 36 37 37 36 34 34 34 31 31 32 32 33 32 32 32 33
42 43 46 49 49 48 47 45 42 40 36 34 34 34 35 35 37 36 35 34 34 34 32 32 33 33 33 32 31 32 31 29
43 42 42 44 46 47 47 44 43 41 39 38 41 40 38 39 36 35 35 34 33 33 32 33 33 33 32 32 31 29 27 26
34 41 42 44 45 47 47 44 43 40 39 40 41 39 36 36 35 33 32 33 32 32 32 33 33 31 32 34 30 27 25 24
34 35 44 45 46 47 45 41 41 41 41 40 40 38 36 35 33 32 31 32 33 33 32 33 33 33 33 33 31 25 24 23
35 38 40 44 46 43 42 42 42 41 38 37 36 34 33 33 33 33 34 34 33 32 32 31 32 32 33 33 30 23 22 23

GFSFLT1_sfc_dewp_039.txt.gz
Dewpoint
56 57 58 58 59 57 59 58 57 57 57 56 56 56 55 54 52 52 52 51 50 49 47 45 42 41 40 39 37 39 39 37
58 58 59 59 57 57 58 57 57 57 57 55 53 53 53 52 51 51 51 51 49 46 44 42 41 40 39 38 39 37 37 36
57 58 59 57 55 57 58 57 57 56 56 55 54 53 53 52 51 51 49 49 46 43 42 41 41 41 40 39 38 38 37 36
55 56 55 56 54 56 58 57 57 56 57 55 53 51 50 49 49 48 47 47 45 43 42 41 41 41 40 39 37 36 35 36
52 53 54 55 55 56 57 57 57 57 57 55 52 50 49 48 48 46 46 46 44 42 42 42 41 39 38 39 38 37 36 35
49 52 53 54 55 57 58 58 57 57 57 56 52 50 48 48 47 45 44 42 42 42 39 37 37 38 37 36 35 36 37 36
49 52 54 54 57 58 58 58 57 57 57 56 52 50 47 48 45 44 42 39 38 37 35 37 37 37 36 35 36 37 37 36
54 55 55 56 57 57 58 58 57 57 57 56 52 51 48 48 45 44 39 37 36 35 36 37 37 36 35 35 34 34 36 36
55 56 56 56 57 58 58 58 58 57 56 55 51 50 48 49 46 42 39 37 36 36 37 37 37 35 34 34 35 37 36 35
55 57 57 57 57 58 57 57 57 53 51 48 45 44 43 47 44 42 38 37 35 36 37 36 35 35 33 34 37 35 35 35
54 56 56 57 57 57 57 56 54 47 44 44 44 45 45 45 42 39 37 36 36 37 35 35 35 34 34 34 35 34 35 35
54 55 56 56 57 56 56 52 48 42 41 42 41 42 41 40 39 36 35 36 35 34 35 34 35 33 32 33 34 33 33 33
54 55 55 55 55 55 54 51 46 43 42 41 41 41 41 38 37 35 35 35 35 35 37 36 34 32 31 33 33 32 32 31
51 53 54 54 53 53 51 50 47 43 41 42 41 39 37 35 37 38 36 37 37 36 35 34 33 32 31 32 32 32 32 31
46 49 52 53 52 51 50 47 45 43 41 39 39 41 39 39 39 39 37 36 36 35 35 34 34 32 32 33 32 32 31 32
44 44 45 47 50 50 49 48 46 43 42 41 41 41 39 40 39 37 38 37 35 35 34 33 33 33 32 33 32 32 31 28
37 42 42 43 46 47 48 46 45 43 41 42 41 41 39 37 36 36 35 34 33 35 37 35 33 32 33 35 33 30 28 27
36 36 43 43 45 47 45 42 41 40 42 42 41 39 37 35 34 33 33 34 37 38 36 33 31 32 34 34 34 28 26 25
39 40 42 44 43 41 41 40 40 41 41 41 39 35 34 33 33 34 36 39 38 33 32 30 31 30 33 34 33 25 24 24

GFSFLT1_sfc_dewp_045.txt.gz
Dewpoint
54 56 55 55 56 57 57 59 61 61 60 59 59 60 61 60 59 57 56 53 53 52 51 51 48 46 44 42 43 42 40 40
54 56 57 56 57 58 58 60 61 59 58 58 57 58 58 57 56 56 56 53 52 52 50 48 46 45 43 44 43 42 39 41
54 56 56 57 56 57 58 59 59 59 58 58 57 58 57 56 54 54 54 54 52 50 48 46 45 43 45 44 44 41 41 41
55 56 56 57 57 57 58 58 59 60 59 57 56 56 55 53 52 52 53 52 50 48 47 46 45 44 43 44 43 40 36 40
54 56 56 57 58 58 58 59 59 59 59 57 56 55 54 54 55 54 52 51 48 45 45 46 45 44 44 43 40 40 39 35
53 56 57 57 59 59 59 59 59 59 58 58 56 56 56 55 55 53 51 49 47 45 45 45 45 43 42 41 41 40 40 39
52 55 57 58 60 59 59 59 58 59 58 58 57 56 54 53 53 51 49 49 46 45 44 44 43 40 40 39 41 41 41 39
50 53 56 57 58 59 59 58 58 58 58 57 57 56 54 54 52 51 48 48 46 45 43 42 39 39 39 40 42 41 39 40
49 52 55 56 57 58 58 57 57 58 58 58 57 56 56 55 53 52 50 48 47 45 41 39 39 41 41 43 41 38 39 39
47 50 53 55 56 57 58 57 57 57 58 58 58 57 56 54 53 52 50 49 44 43 40 41 42 41 44 40 38 38 39 40
48 49 52 54 56 57 58 58 57 58 58 58 58 58 56 56 54 52 50 47 43 42 40 41 42 44 40 39 37 38 39 39
50 52 53 54 56 56 57 57 57 58 58 58 58 57 56 56 54 53 49 46 42 39 40 43 43 39 38 37 38 38 37 37
51 53 55 55 55 56 56 57 57 58 57 56 56 56 54 54 52 51 49 45 42 41 42 41 39 38 36 39 38 35 35 36
52 53 54 56 56 57 57 57 57 57 54 53 53 53 51 51 50 48 45 43 41 40 39 38 38 38 39 38 39 36 35 35
50 53 54 55 56 56 57 57 55 52 50 49 49 49 49 48 45 44 43 41 39 39 40 40 39 37 39 38 35 34 34 34
46 48 51 54 54 55 55 54 52 50 48 48 47 45 44 43 41 40 40 39 38 38 39 40 41 41 39 38 38 37 37 35
43 44 44 45 48 51 52 50 48 47 46 44 42 41 40 39 38 38 39 39 39 40 40 40 41 40 39 38 38 37 33 32
39 42 42 42 44 47 47 46 45 44 43 41 40 38 37 37 38 38 39 40 41 41 41 41 40 40 37 36 35 32 33 33
38 39 39 39 40 41 43 43 42 41 40 39 37 36 36 37 39 40 40 41 40 40 40 40 39 36 34 34 34 33 32 32

GFSFLT1_sfc_dewp_048.txt.gz
Dewpoint
52 53 54 53 53 55 57 57 60 62 60 58 53 55 57 60 61 59 60 58 58 56 54 54 53 51 50 47 47 43 41 39
52 51 52 53 54 56 56 59 60 62 58 54 50 53 56 59 59 60 60 57 56 56 54 54 53 50 49 49 45 44 40 41
51 53 53 53 53 55 55 56 57 60 58 54 52 51 54 56 58 60 59 58 56 55 55 53 51 49 49 48 46 42 41 41
51 52 54 56 54 56 54 55 56 59 59 56 54 54 56 56 57 58 56 56 55 55 54 51 51 49 47 48 46 44 40 40
50 52 54 55 56 55 55 56 57 59 60 57 55 51 52 55 57 56 55 56 55 53 52 50 51 48 48 47 44 43 41 40
48 51 54 55 56 57 56 56 56 58 59 60 57 54 52 55 58 57 57 56 54 51 50 50 50 48 48 46 44 43 42 41
47 49 52 54 56 58 59 57 56 58 59 60 60 58 55 55 57 57 56 54 53 51 48 50 49 48 48 44 44 45 43 41
49 48 51 54 57 59 59 58 56 57 58 59 60 60 59 58 57 57 56 53 51 51 50 50 48 48 45 44 46 45 42 40
48 50 51 54 57 59 59 57 57 57 59 59 60 61 60 59 58 57 56 53 51 51 50 49 48 45 44 44 43 44 41 41
44 47 50 53 57 59 60 58 57 57 59 60 60 60 60 59 59 58 54 52 52 51 49 48 45 42 42 44 44 42 40 41
42 44 48 52 55 58 60 59 58 57 59 60 59 59 59 59 59 55 54 53 52 50 47 45 43 43 43 44 40 41 42 42
46 47 49 51 53 56 58 58 57 57 58 59 60 59 59 59 58 57 56 55 52 48 47 45 43 43 42 40 42 41 39 41
48 50 52 52 53 54 55 56 56 57 58 59 59 59 58 58 57 57 56 52 49 47 44 42 44 41 41 41 41 40 40 39
47 51 52 53 54 55 55 57 57 57 57 57 57 56 56 55 53 52 51 49 46 43 43 44 41 41 40 41 41 42 41 40
47 50 52 53 55 56 57 58 58 57 55 54 53 53 52 51 50 48 47 45 43 43 42 41 41 41 41 41 42 41 41 39
47 49 51 53 55 56 56 57 56 55 54 52 51 49 48 48 48 47 45 42 41 41 41 41 42 41 41 42 40 40 40 40
45 46 47 48 50 51 53 52 51 51 50 48 46 45 45 44 42 42 41 40 40 40 40 41 41 41 39 39 39 40 40 38
42 42 43 45 48 49 49 48 48 47 46 44 43 41 40 40 39 38 39 41 43 42 42 42 42 42 39 39 38 37 34 33
41 41 42 44 45 46 46 45 45 44 42 41 39 39 39 39 39 40 42 43 42 41 41 41 41 39 37 35 34 33 33 32

GFSFLT1_sfc_dewp_051.txt.gz
Dewpoint
51 52 51 50 52 55 56 55 56 58 60 56 53 54 54 54 56 58 60 61 61 60 57 57 57 53 53 52 51 48 45 42
51 52 52 52 53 54 55 57 58 59 55 53 49 53 53 53 56 59 60 60 60 59 56 57 56 54 54 53 51 48 43 43
49 52 52 52 53 54 55 55 55 59 57 53 51 49 50 51 54 58 58 59 58 58 57 56 56 53 54 53 51 46 45 45
49 49 50 53 53 54 54 55 56 59 58 54 51 49 50 51 52 55 58 59 58 57 57 56 56 55 53 52 50 48 44 44
47 50 50 51 52 54 54 54 54 55 56 55 54 49 47 50 52 54 57 59 59 56 56 56 55 54 54 53 49 50 47 43
46 49 50 52 53 55 56 54 53 54 56 57 55 54 50 51 54 57 59 59 58 56 56 56 54 53 53 53 52 50 45 44
43 46 49 51 53 56 56 54 53 54 55 57 58 56 54 50 54 57 58 58 57 57 55 56 55 53 52 51 52 49 46 46
42 43 46 50 53 56 57 54 52 53 55 56 58 58 57 55 54 58 57 57 56 56 55 54 53 53 51 51 50 49 46 45
42 43 45 49 53 55 56 55 55 53 56 58 59 58 59 58 59 58 58 58 58 56 54 52 52 51 51 49 46 47 46 45
39 43 46 48 54 57 58 57 56 56 59 61 60 61 61 61 61 61 60 60 55 54 53 52 51 51 48 47 47 45 42 45
37 41 44 48 51 57 59 59 57 57 57 59 59 59 61 61 61 61 60 58 55 53 53 52 51 46 47 46 44 43 42 44
42 42 44 46 49 54 58 59 58 57 57 59 60 60 60 60 60 60 58 57 55 53 53 51 47 47 45 43 43 43 42 43
45 46 47 48 50 53 56 58 57 57 57 58 60 60 60 60 60 58 58 57 54 51 49 48 46 44 44 42 42 42 41 42
44 49 50 50 52 53 55 56 55 56 56 57 59 58 57 57 55 53 53 51 50 49 46 46 45 44 42 42 42 42 42 42
38 44 49 51 53 54 54 56 56 57 56 56 56 56 55 54 53 51 49 47 45 44 45 43 42 41 41 41 42 42 42 42
39 42 47 50 53 55 56 57 57 56 54 53 52 53 52 51 50 49 47 45 44 42 42 42 42 42 42 42 42 42 41 41
39 44 48 52 54 55 55 55 55 55 53 51 50 49 49 47 47 46 45 44 43 42 42 42 42 40 39 39 40 41 40 40
44 46 48 49 51 52 51 51 51 49 48 47 45 44 43 43 41 41 41 42 43 43 42 42 42 42 39 39 38 40 38 36
43 44 45 46 47 47 48 46 46 45 44 42 42 42 41 41 41 41 42 43 42 43 42 41 41 39 39 39 36 34 32 32

GFSFLT1_sfc_dewp_054.txt.gz
Dewpoint
51 52 51 51 51 52 52 52 52 51 51 52 53 57 56 55 53 56 60 60 62 61 61 60 58 57 56 55 53 53 50 46
51 51 51 50 51 53 52 52 53 52 55 54 53 54 53 53 54 58 61 60 61 61 61 60 58 57 55 55 53 51 47 45
51 51 51 51 52 53 53 53 51 52 56 56 53 53 54 54 54 59 60 61 61 61 60 58 58 56 56 55 53 50 48 48
49 51 51 52 54 55 55 55 54 56 57 56 54 52 52 53 53 56 59 60 59 60 60 58 58 57 55 55 54 51 47 49
49 50 52 52 54 55 55 55 55 56 58 56 54 51 48 51 52 56 57 60 60 59 58 59 58 57 55 55 53 51 50 47
49 49 51 53 54 54 55 55 55 56 58 58 57 53 52 51 55 55 58 60 60 60 58 58 57 56 55 54 52 51 51 48
47 50 50 51 52 55 56 55 54 55 58 58 58 57 54 53 54 56 59 59 59 59 57 58 57 56 56 55 54 52 50 48
44 48 50 51 51 53 55 55 54 55 56 57 57 59 58 55 55 56 58 58 58 58 58 57 56 55 54 53 53 50 48 45
42 45 49 51 53 54 54 54 54 54 55 57 59 58 60 60 58 56 58 58 58 58 58 57 55 54 53 52 49 47 48 48
41 43 46 50 52 55 56 55 54 54 56 58 58 60 60 61 60 60 59 59 59 58 58 54 53 53 52 49 48 48 47 45
39 41 45 48 52 56 58 57 55 55 56 58 58 60 60 60 58 61 61 59 57 56 55 54 53 52 48 47 47 44 44 44
42 43 45 47 51 54 58 58 57 58 59 59 59 59 59 60 61 60 60 58 57 55 54 53 51 47 48 45 44 43 43 43
44 45 46 47 50 54 57 58 59 60 60 60 60 60 61 60 60 59 58 57 56 55 52 49 47 46 44 43 43 43 43 42
45 47 48 49 51 53 57 59 58 59 58 60 60 60 58 56 55 54 53 52 50 49 47 46 45 45 43 43 42 41 41 41
42 47 49 51 52 54 56 58 59 58 58 58 57 56 54 53 52 50 49 47 46 46 46 45 44 43 42 42 41 41 41 42
37 44 49 52 53 54 56 58 57 56 56 55 54 53 52 51 49 48 46 45 45 43 43 43 42 42 42 41 41 42 42 42
32 40 47 51 53 55 57 57 56 55 53 53 52 51 51 50 48 46 45 44 43 43 43 42 42 41 40 39 41 41 41 40
37 42 47 52 55 57 56 55 55 53 51 51 50 48 47 46 45 43 43 43 43 43 42 42 42 42 39 39 39 40 40 40
44 49 52 54 54 53 52 51 50 48 47 45 45 44 42 42 42 43 43 43 43 43 43 42 42 41 39 39 38 38 33 33

GFSFLT1_sfc_dewp_057.txt.gz
Dewpoint
51 51 51 52 53 54 54 54 54 54 55 52 50 51 52 55 55 55 59 59 59 60 59 59 59 56 55 53 51 52 50 45
51 51 51 51 52 53 53 52 51 51 50 49 48 49 49 55 54 53 58 59 60 61 60 59 58 55 54 53 52 51 48 46
51 50 51 50 50 51 51 50 49 48 47 48 50 50 50 52 54 55 59 59 59 60 60 59 58 56 55 54 52 50 47 45
49 49 49 49 50 51 49 50 49 49 49 51 54 52 53 53 52 53 59 59 60 60 60 59 57 56 55 54 52 49 47 47
48 48 48 48 49 51 50 51 50 49 52 53 53 51 49 52 52 52 56 59 59 59 59 59 57 57 55 54 53 51 48 46
49 48 49 50 50 51 50 52 49 48 50 54 55 54 51 50 52 53 55 58 59 59 58 58 57 56 55 54 53 51 51 49
49 50 49 50 52 53 53 53 53 51 52 55 56 57 52 50 50 52 57 59 59 59 58 57 57 55 55 55 55 53 53 51
48 49 50 50 50 53 54 54 54 55 55 55 56 57 57 54 52 53 57 58 58 58 59 57 56 56 56 55 54 52 51 46
48 49 49 50 51 52 53 53 53 54 54 56 57 57 57 57 56 57 57 57 58 59 59 58 57 56 55 53 53 51 48 47
46 48 48 49 51 51 53 53 53 53 54 56 57 58 57 59 58 58 59 59 58 58 58 57 56 55 54 52 50 48 48 46
41 47 49 49 49 51 52 53 54 53 54 54 55 58 59 59 59 59 59 57 55 55 55 55 54 53 50 48 48 47 46 45
39 41 45 50 50 51 51 51 53 55 55 55 56 59 60 59 57 56 58 56 56 56 55 53 52 50 48 47 45 45 44 44
40 42 43 47 49 51 52 54 55 56 56 59 59 59 59 59 59 58 58 57 56 55 54 52 49 47 46 45 44 43 43 42
43 45 46 47 50 51 53 56 57 59 60 59 59 59 59 58 56 55 54 53 51 50 49 48 46 45 44 44 43 43 43 42
44 46 47 48 51 55 58 59 61 60 60 59 57 56 55 53 52 51 50 49 48 47 47 45 45 44 43 43 42 42 41 41
45 46 48 50 53 57 56 57 57 57 56 55 53 52 52 50 48 48 47 47 46 45 44 44 43 43 42 42 41 41 41 41
42 47 50 52 55 56 55 54 54 54 53 53 52 51 50 48 47 46 45 44 43 43 43 42 41 41 39 39 40 41 41 41
31 47 51 53 56 56 55 54 53 52 52 52 51 50 48 47 45 44 43 42 42 41 40 40 40 39 39 39 39 41 40 38
50 51 54 57 57 55 55 52 52 51 49 48 48 46 45 44 42 43 42 41 41 41 42 42 42 41 38 39 37 36 35 33

GFSFLT1_sfc_dewp_060.txt.gz
Dewpoint
51 51 52 53 54 55 54 54 53 53 54 54 54 54 55 55 55 54 57 58 59 58 58 57 58 57 54 52 51 51 50 48
51 51 52 52 54 54 54 52 53 54 53 53 52 52 53 54 54 54 56 58 59 59 58 59 58 57 54 52 51 50 50 47
51 51 51 52 53 53 53 53 52 53 52 51 50 51 51 50 54 55 54 58 59 59 59 58 57 56 54 53 52 50 50 46
50 50 50 51 52 53 53 52 52 52 51 49 50 51 52 50 51 52 55 56 57 58 59 58 57 56 54 53 52 50 48 47
50 50 50 50 51 52 52 51 50 50 49 48 48 48 47 47 48 49 52 58 58 58 58 59 58 57 55 54 54 51 49 47
50 50 50 49 50 51 50 50 49 49 48 48 49 49 48 49 51 53 53 56 59 59 58 59 58 57 56 55 54 53 51 50
50 49 49 48 50 50 48 48 50 48 48 49 51 51 51 50 50 52 53 54 57 58 59 59 58 57 56 56 56 54 52 52
48 48 48 48 48 50 50 48 50 48 48 49 53 53 53 54 50 50 52 54 56 57 58 58 58 57 57 57 56 53 52 51
49 48 48 48 49 49 50 50 50 49 48 48 50 54 55 56 55 52 52 54 55 57 58 58 58 57 57 56 54 53 52 51
48 49 49 49 50 51 51 51 51 51 50 49 50 54 55 57 57 55 55 57 57 57 58 58 57 57 57 55 53 49 49 48
48 49 50 50 50 51 53 53 53 53 53 54 54 55 57 57 58 56 57 57 56 56 57 57 57 56 55 53 50 48 47 46
46 48 49 50 51 51 52 53 54 54 55 55 55 56 57 59 59 58 58 57 56 54 56 56 55 54 51 49 47 47 46 45
41 46 49 49 49 50 51 52 53 54 56 57 58 59 59 59 59 58 58 56 55 54 55 53 51 49 48 46 46 45 44 43
41 43 44 48 50 49 50 52 53 56 58 58 59 59 59 59 59 59 59 56 54 54 53 52 49 47 45 45 44 44 44 43
42 45 46 48 50 50 51 53 54 57 58 58 58 58 58 58 56 55 54 53 51 50 49 48 46 45 44 44 44 43 43 42
43 45 46 52 56 56 55 56 57 58 58 58 57 58 55 53 52 51 49 48 48 47 46 46 44 44 43 43 43 42 41 41
43 45 48 55 56 55 55 55 58 58 57 56 54 53 51 50 49 49 47 46 46 45 44 44 44 43 39 40 41 41 40 41
42 46 49 55 55 55 54 54 55 55 54 53 52 50 49 48 47 46 45 44 44 44 43 42 42 41 38 39 39 41 41 39
36 46 50 55 55 54 53 53 53 52 52 51 50 48 46 45 45 44 45 44 42 41 41 40 39 39 38 38 37 36 33 32

GFSFLT1_sfc_dewp_063.txt.gz
Dewpoint
51 52 53 54 55 55 55 55 56 55 55 55 55 56 55 54 54 56 57 57 57 57 57 57 57 56 55 53 51 50 49 46
51 51 52 53 54 55 54 54 53 53 53 53 53 54 54 54 53 54 57 57 59 58 57 57 57 57 55 53 51 50 50 48
51 50 52 52 53 54 53 52 53 53 52 52 51 52 53 52 54 55 55 57 57 58 58 57 57 56 54 52 51 50 50 46
50 50 51 51 53 53 52 52 53 53 52 51 50 50 51 50 50 53 54 55 57 58 58 58 57 56 55 53 52 51 50 49
51 50 50 50 51 52 52 53 52 52 52 50 49 48 48 49 49 50 51 55 55 57 58 58 57 57 55 54 54 52 52 49
50 50 50 51 51 52 52 52 52 51 52 50 50 49 49 49 48 48 49 52 56 57 57 57 57 57 57 55 54 53 53 52
50 50 50 50 51 52 52 52 51 51 51 50 49 49 48 48 48 49 50 52 53 56 57 57 57 57 57 56 56 55 54 53
50 50 49 50 50 50 51 51 51 50 50 50 48 49 49 49 48 49 49 51 53 54 56 57 57 57 57 57 56 56 54 53
50 50 49 49 49 49 50 49 50 50 49 49 49 48 50 51 51 50 51 51 52 53 55 57 57 57 56 56 56 55 53 53
48 50 49 49 48 49 49 48 48 49 49 49 49 49 51 51 52 55 54 53 53 54 55 56 56 56 57 56 57 56 53 52
48 49 49 49 48 48 50 50 48 48 49 48 48 48 51 53 55 55 56 56 56 57 56 56 57 57 57 57 56 52 50 49
47 49 49 49 49 48 48 50 51 50 50 50 48 49 51 53 55 56 57 57 57 57 57 57 57 57 55 54 52 49 48 46
43 48 49 50 49 49 49 49 50 52 53 53 54 54 56 56 57 57 58 58 57 57 55 55 55 54 53 51 49 48 46 45
40 45 48 49 50 50 50 51 52 53 55 56 56 57 58 58 58 58 58 58 57 55 55 53 53 50 50 48 47 46 45 45
39 42 46 49 49 50 51 52 53 54 56 56 56 57 58 57 58 58 58 57 55 55 54 52 50 48 47 45 45 44 44 43
40 42 43 45 48 50 50 51 53 54 55 56 56 57 57 57 57 57 54 55 54 53 49 47 46 46 46 44 44 43 43 42
39 43 45 48 52 52 50 51 53 55 56 56 56 56 57 57 55 52 50 49 49 47 46 45 45 46 40 41 42 42 41 41
34 43 45 49 54 54 54 55 54 55 55 55 56 56 53 52 50 50 48 47 48 46 44 44 45 43 39 39 39 41 40 40
31 38 46 51 53 53 54 56 56 56 56 55 54 52 51 50 49 47 46 46 44 43 44 44 43 41 38 38 37 37 34 32

GFSFLT1_sfc_dewp_066.txt.gz
Dewpoint
50 52 53 54 55 56 56 57 57 57 57 57 57 57 57 58 58 56 55 55 56 56 55 55 55 55 53 52 51 50 49 47
51 51 53 54 55 55 55 56 56 56 56 55 55 55 55 56 56 56 56 56 56 56 56 56 56 55 54 53 52 50 50 48
50 50 52 53 53 54 54 54 54 53 54 55 55 56 54 54 55 55 57 58 58 58 57 57 57 57 56 54 52 51 50 47
50 50 50 51 52 53 53 53 53 52 53 52 51 54 52 51 52 53 54 56 57 58 58 57 57 56 55 53 52 51 50 49
51 50 49 49 51 53 53 52 53 52 52 51 49 52 51 50 50 51 52 54 55 56 57 57 57 56 56 54 53 52 51 49
50 50 50 50 51 52 52 53 52 52 52 51 50 49 51 50 50 49 50 52 54 54 55 56 57 57 56 55 54 52 52 51
51 51 50 50 50 51 51 51 52 52 52 51 50 49 49 49 48 48 49 50 51 54 55 55 56 55 55 55 55 54 54 53
50 50 50 50 50 51 51 51 51 52 51 51 50 49 49 49 48 48 49 49 51 52 54 54 55 55 55 55 54 54 54 54
50 50 50 50 50 50 51 51 51 51 51 51 50 49 50 49 49 49 49 49 49 50 52 54 55 55 55 54 54 55 55 55
49 50 50 49 49 49 50 51 51 51 50 51 50 50 50 50 50 51 51 51 52 51 52 52 54 54 55 56 56 55 55 55
48 50 50 50 49 49 50 51 51 51 51 50 50 50 50 51 51 51 53 54 53 52 53 53 54 54 54 56 56 56 56 54
47 49 50 50 50 49 49 49 50 50 51 51 50 50 50 51 52 53 54 55 56 55 55 56 56 56 55 55 56 54 53 52
45 48 49 49 49 49 48 49 49 50 51 52 51 50 50 50 51 52 54 54 55 56 56 56 57 56 56 56 54 51 51 48
42 47 49 49 49 49 48 49 49 51 51 51 52 50 50 50 51 51 52 53 54 56 56 56 56 55 54 53 52 51 49 48
36 42 47 49 50 49 49 50 50 51 51 51 51 52 51 51 51 52 54 56 57 57 57 56 54 53 52 50 49 47 46 45
34 39 44 48 49 50 50 51 51 51 51 52 52 53 53 52 53 54 54 56 57 57 55 52 49 49 48 47 47 45 44 43
31 38 40 43 48 49 50 51 52 52 52 52 54 54 55 55 55 56 56 56 56 55 52 52 48 48 45 43 45 44 43 42
31 35 41 43 44 49 50 50 52 52 53 53 54 55 55 55 56 56 54 54 52 49 48 48 46 44 42 42 40 43 42 41
32 32 41 44 47 52 52 52 52 53 53 54 54 55 55 53 52 51 49 48 48 47 47 45 44 41 40 40 39 38 36 34

GFSFLT1_sfc_dewp_069.txt.gz
Dewpoint
52 53 52 53 56 58 58 58 58 59 59 59 59 60 61 60 60 59 57 56 55 56 56 55 55 55 54 53 52 51 48 45
52 53 54 52 54 56 57 57 57 57 57 58 57 56 57 59 59 58 56 56 55 56 56 56 57 55 55 56 55 54 52 50
52 52 53 53 53 55 56 56 56 56 57 56 56 57 57 57 58 58 57 56 56 56 56 56 55 57 57 56 56 54 55 52
51 51 52 53 52 53 54 56 55 55 56 55 56 55 56 56 56 57 57 57 57 57 57 58 58 58 58 58 57 56 54 53
52 51 50 51 52 53 55 55 54 55 55 54 55 53 53 54 55 56 57 58 58 58 58 59 59 59 59 58 59 57 56 54
52 51 51 50 51 52 55 55 54 54 54 54 54 54 54 54 53 54 55 56 57 57 58 59 59 58 59 59 58 57 56 56
51 52 52 51 51 52 54 53 53 54 53 53 53 54 54 51 51 52 52 54 55 56 56 58 59 58 59 59 59 58 58 57
51 51 51 51 51 51 52 52 52 54 54 53 53 53 54 53 51 51 51 51 51 54 56 57 57 57 58 58 58 58 58 58
50 51 51 51 51 51 52 51 51 52 54 53 52 53 52 52 53 51 51 52 52 53 55 55 56 56 57 58 58 59 59 59
49 51 51 51 51 52 52 51 51 52 53 53 53 52 53 52 53 54 54 54 53 54 54 55 56 56 57 58 58 58 58 59
47 50 51 51 52 52 52 52 52 53 53 53 52 53 53 53 54 53 53 54 53 53 54 54 54 55 56 57 58 58 58 59
47 49 51 51 51 51 52 52 52 53 53 53 53 53 53 53 53 54 53 54 54 54 54 54 54 54 56 57 57 58 57 57
44 48 50 51 51 51 51 51 51 53 54 54 54 54 53 53 53 53 54 53 54 54 54 54 55 55 57 57 56 55 55 55
41 46 48 50 51 51 51 51 51 53 53 54 54 54 53 53 53 54 54 54 54 56 56 56 55 54 55 56 56 55 54 54
36 41 47 49 50 51 51 52 53 53 52 53 53 53 53 53 53 53 54 54 54 54 54 56 56 56 55 55 55 55 53 51
34 38 41 47 50 51 51 51 52 52 52 52 52 53 53 53 53 53 53 53 53 54 55 57 57 56 54 53 53 52 48 47
34 35 38 43 48 50 51 52 52 52 52 52 52 52 53 52 52 53 53 54 55 57 58 57 53 52 45 45 48 48 46 45
36 36 36 40 44 50 51 52 52 52 52 52 52 53 53 54 53 52 54 55 56 57 57 55 52 51 42 43 44 46 44 42
36 37 38 40 44 46 51 51 52 52 52 52 52 54 54 54 55 55 55 56 56 54 52 50 47 43 41 41 41 43 40 38

GFSFLT1_sfc_dewp_072.txt.gz
Dewpoint
52 54 53 54 55 58 59 60 60 59 60 60 60 61 61 61 61 59 57 54 55 52 51 55 55 51 51 50 51 49 48 45
53 54 54 54 55 57 58 58 59 59 59 58 58 59 59 60 60 60 58 55 53 53 51 54 56 54 54 55 54 54 50 50
53 54 54 54 55 55 57 58 58 58 58 58 59 58 60 60 60 59 58 57 53 55 55 56 56 55 56 57 56 54 54 56
52 53 54 54 54 55 55 57 58 58 59 59 58 58 58 58 59 58 58 57 55 55 56 56 57 56 55 57 57 56 55 56
51 53 53 53 54 54 55 55 56 57 58 56 56 55 54 56 56 57 58 57 56 55 56 56 57 58 56 58 58 57 57 57
50 52 52 53 53 54 55 55 56 56 56 56 55 54 54 56 57 57 57 58 58 56 57 58 57 57 59 60 59 58 57 57
49 51 52 52 53 54 56 55 55 55 56 56 56 55 54 54 55 56 56 57 57 58 56 58 58 59 59 59 60 60 59 58
48 50 52 52 52 53 54 53 53 55 56 56 56 56 56 55 55 55 55 55 55 55 57 57 56 56 57 58 57 59 57 58
46 49 51 52 53 53 53 52 52 53 55 55 55 55 56 55 55 54 55 54 54 56 57 56 56 55 56 58 57 56 57 58
45 48 51 52 53 54 53 51 51 52 54 55 55 55 56 56 56 55 55 55 54 56 57 57 56 56 56 58 56 56 56 57
42 47 51 52 53 54 54 53 51 52 53 54 54 54 54 55 55 56 56 56 55 56 56 56 56 55 54 55 55 55 55 57
41 45 49 51 52 53 54 53 51 52 54 54 54 54 54 56 56 56 56 56 56 55 54 55 53 53 53 54 54 54 54 55
37 45 49 50 52 52 53 53 52 52 54 55 55 55 54 54 55 56 58 57 57 56 54 52 52 52 54 55 54 54 54 55
34 43 47 49 51 51 52 54 53 54 54 54 55 55 55 55 55 55 54 55 55 55 54 54 54 55 54 54 55 55 55 57
33 35 43 47 50 51 51 53 54 54 54 54 54 55 56 55 54 53 54 53 52 53 54 54 55 54 54 54 55 55 55 54
32 34 36 42 48 50 51 52 53 54 54 54 55 55 54 54 54 54 54 54 53 53 54 55 55 55 54 55 55 55 54 54
32 34 34 36 41 47 50 51 53 53 53 53 54 54 54 54 54 54 55 54 54 54 55 54 54 54 48 47 53 56 54 52
34 33 35 37 38 44 48 50 52 52 52 52 53 53 53 54 54 53 53 54 55 55 54 53 55 56 44 45 44 55 52 49
36 35 35 36 38 40 46 47 50 52 51 51 52 52 52 53 53 53 54 54 54 55 56 56 57 56 43 43 41 48 44 43

GFSFLT1_sfc_dewp_078.txt.gz
Dewpoint
47 48 51 50 56 59 59 61 60 60 61 60 59 59 60 60 60 59 59 59 58 58 59 60 59 58 56 53 52 52 50 50
48 51 53 53 57 59 59 59 59 60 59 59 58 58 58 59 60 59 59 57 57 57 55 57 56 55 52 53 54 51 51 51
48 51 53 53 55 57 59 59 59 59 59 59 58 58 58 58 59 57 57 57 55 55 55 54 54 53 53 55 54 53 53 53
47 51 54 54 55 56 57 58 59 59 59 59 58 59 58 58 58 57 57 57 55 54 56 55 55 54 55 55 56 54 53 53
46 50 53 54 54 56 56 58 57 59 59 58 58 56 56 56 57 57 56 57 57 53 56 57 57 57 56 56 57 57 57 55
44 50 52 54 55 56 56 57 56 58 58 58 58 57 56 56 58 58 57 57 57 57 55 58 57 58 58 58 58 58 58 57
41 49 52 53 55 55 56 56 57 57 58 59 57 57 56 55 57 57 56 56 56 57 56 57 58 58 58 59 59 59 58 56
40 47 50 52 54 55 55 56 55 58 59 58 58 57 57 57 56 56 55 55 55 55 56 56 56 56 56 57 57 57 57 55
41 45 50 52 54 54 54 55 54 57 57 58 58 57 57 57 57 56 55 53 55 54 55 55 55 54 54 55 55 56 56 56
38 42 50 52 54 55 54 53 53 55 56 57 57 58 58 56 57 57 57 55 53 53 54 55 55 53 53 53 54 55 55 55
39 41 50 51 54 55 55 53 53 54 56 56 55 56 57 57 57 56 56 56 55 52 53 55 55 53 53 53 52 53 54 55
38 42 47 51 53 54 55 54 52 53 56 57 56 57 57 56 56 57 56 57 56 55 55 54 54 54 53 52 52 53 53 53
37 41 45 48 51 53 55 55 53 52 54 56 57 57 57 57 57 57 57 57 57 55 55 55 55 54 53 53 52 52 53 53
34 34 42 45 50 52 53 55 55 54 53 55 56 56 56 56 57 57 57 57 57 57 56 55 55 54 53 53 52 52 52 53
33 34 35 44 48 51 52 55 56 55 54 53 55 56 56 56 56 56 58 57 57 57 56 56 56 55 54 53 52 52 53 53
38 39 40 40 42 50 51 53 55 56 55 54 53 55 56 56 56 56 56 57 57 56 56 55 55 55 54 54 53 53 53 53
39 40 41 42 42 41 48 52 54 55 55 55 54 54 55 56 56 56 56 56 56 56 56 55 55 54 48 45 51 53 53 53
40 40 42 46 47 48 43 41 50 53 54 55 55 55 54 55 56 55 55 55 55 55 55 55 55 55 46 44 44 52 53 53
40 42 45 48 50 50 51 50 42 45 52 53 54 55 55 55 55 55 55 55 55 55 55 55 55 55 45 43 42 52 53 53

GFSFLT1_sfc_dewp_081.txt.gz
Dewpoint
46 49 52 57 58 59 60 60 61 61 60 59 59 59 60 60 60 60 60 59 59 59 59 60 58 57 55 52 50 51 50 50
46 49 50 56 58 59 59 59 60 60 59 58 57 58 59 59 58 58 58 58 58 57 59 59 59 57 53 51 51 50 48 49
47 50 50 56 57 58 57 58 59 60 59 58 58 58 58 58 58 56 58 57 56 55 57 58 56 54 53 52 51 52 49 51
47 49 50 56 57 58 58 57 59 59 59 59 58 58 58 58 58 57 57 57 56 55 55 56 54 54 52 52 52 51 51 52
48 50 50 53 56 58 58 58 58 58 59 58 57 57 56 57 57 55 56 57 56 54 55 54 54 54 52 53 53 51 54 51
48 51 50 52 54 55 57 58 58 58 58 58 57 57 56 56 57 55 55 56 56 54 55 56 54 56 56 55 55 56 56 53
49 51 52 52 54 54 56 57 57 58 58 58 57 57 56 56 56 56 55 56 55 55 55 56 55 57 57 56 57 57 57 55
48 51 52 52 54 53 56 55 55 58 57 58 58 57 56 55 56 55 55 55 54 55 56 57 56 57 58 58 58 57 57 56
48 50 51 53 53 54 54 55 56 55 57 57 57 57 57 56 56 56 55 55 54 52 55 56 56 57 57 57 57 57 56 56
48 49 50 52 53 54 55 54 55 56 56 56 57 57 57 56 56 56 56 55 55 55 53 55 56 55 55 55 55 55 55 55
40 49 50 52 53 53 53 55 54 56 57 57 57 57 57 57 57 56 56 55 54 55 54 54 55 55 54 54 53 53 54 55
36 42 50 51 53 53 53 53 54 54 56 56 56 57 57 58 57 57 57 57 55 53 53 53 54 54 53 52 52 51 53 53
34 38 50 51 53 53 53 52 52 53 55 56 55 55 55 56 57 57 57 57 57 55 53 52 52 53 54 52 52 51 51 52
39 39 40 46 52 54 54 53 52 52 55 56 55 55 55 55 55 55 56 56 56 56 55 54 52 52 53 53 52 51 51 51
39 40 41 43 44 52 54 54 54 53 53 55 56 56 56 56 56 55 56 56 56 56 55 55 55 53 53 52 52 52 51 51
39 41 44 45 48 50 52 52 55 55 54 53 54 55 56 56 56 56 56 57 56 56 56 55 55 55 54 54 53 53 52 51
40 44 48 49 49 49 50 51 53 57 54 53 53 54 55 55 55 55 56 57 56 57 56 56 55 55 49 46 51 53 52 51
47 47 47 46 46 46 47 49 51 52 53 55 54 54 54 55 55 55 55 55 56 56 57 56 56 55 46 45 44 53 53 52
46 45 44 44 43 43 44 48 47 48 49 51 54 56 55 54 54 55 55 55 55 55 55 56 56 55 46 43 42 52 53 53

GFSFLT1_sfc_dewp_084.txt.gz
Dewpoint
47 55 58 60 60 61 61 61 60 59 58 58 59 60 60 61 61 61 61 61 60 56 54 56 55 49 52 53 51 51 51 51
48 55 58 59 60 59 60 60 61 59 58 57 57 57 59 60 60 60 61 60 60 58 56 57 56 51 51 52 51 50 50 51
48 54 57 58 58 58 58 60 60 59 58 58 58 58 58 58 59 60 60 59 59 59 56 57 55 56 53 52 50 50 49 49
48 52 56 57 57 58 57 58 60 59 59 58 57 58 58 58 57 57 58 58 57 59 57 57 58 56 53 51 50 49 48 50
47 49 55 56 57 57 57 57 58 59 59 58 57 56 54 55 57 57 57 58 56 55 57 56 57 56 54 52 50 49 51 49
47 49 53 56 57 57 56 56 56 57 59 58 57 56 57 57 56 54 56 57 56 55 55 55 55 57 55 53 52 53 52 51
47 48 52 55 57 57 57 56 55 56 58 58 57 56 56 57 56 55 55 56 56 55 55 55 54 57 57 55 55 54 55 52
48 49 51 54 56 56 57 57 56 56 58 58 57 57 55 56 56 55 53 54 54 55 55 55 55 55 55 55 56 55 55 54
48 50 50 53 54 55 56 56 56 57 57 57 57 57 56 56 56 55 54 53 54 54 55 56 56 55 56 56 56 56 56 55
49 51 51 52 53 54 55 55 55 56 56 57 58 57 57 56 56 56 55 54 53 53 54 56 56 57 57 57 56 56 57 56
50 51 52 52 53 54 55 55 54 55 56 57 57 57 57 56 56 56 56 55 54 53 53 55 56 56 56 56 56 56 56 56
46 50 52 53 53 53 54 55 55 55 55 55 56 56 57 57 56 56 56 56 55 54 54 53 54 55 55 55 55 55 55 55
43 49 51 53 53 53 54 54 54 56 56 55 55 56 56 57 57 57 57 56 56 55 54 54 53 53 54 54 53 53 53 53
44 46 47 51 53 54 53 53 54 55 57 56 56 57 57 57 57 57 57 57 56 56 54 54 53 53 53 53 53 52 51 51
46 48 48 48 50 53 55 55 54 54 55 56 55 55 55 56 56 57 57 57 57 56 56 54 53 53 53 53 53 52 51 51
47 47 46 45 46 47 49 51 55 55 55 56 55 55 56 55 55 55 56 56 56 56 56 56 55 54 52 52 52 52 52 51
44 43 43 43 44 45 46 49 50 53 54 56 56 57 56 55 55 55 55 55 55 56 56 55 55 55 49 45 49 52 52 51
42 42 41 41 41 42 45 45 46 47 48 49 53 53 55 56 57 56 56 55 56 56 55 56 55 55 47 46 44 53 53 52
40 40 39 38 38 39 41 41 42 43 43 45 47 48 48 49 51 56 56 56 56 56 56 56 56 56 47 44 43 53 54 54

GFSFLT1_sfc_dewp_087.txt.gz
Dewpoint
43 57 59 60 60 60 60 58 57 57 58 59 60 60 61 62 62 62 62 61 59 56 56 55 53 51 52 52 50 51 51 52
46 57 59 60 60 59 59 59 58 57 57 57 58 58 60 60 61 61 62 61 58 56 56 55 52 49 51 52 51 50 51 51
51 57 59 59 59 58 58 58 57 57 56 56 57 58 59 59 60 61 62 61 58 56 56 54 51 48 52 52 50 50 50 51
51 56 58 58 58 58 57 58 58 57 57 57 58 57 58 58 58 59 60 61 60 58 58 55 54 49 52 52 51 50 49 50
49 54 56 58 58 58 58 58 57 57 58 57 57 56 56 57 57 58 59 58 60 59 57 58 56 56 53 52 51 50 51 49
47 53 55 57 57 57 57 58 57 57 57 57 57 56 56 56 57 57 58 58 58 58 58 58 57 56 54 53 52 51 52 51
46 50 54 56 56 56 56 56 57 57 57 58 57 56 55 56 56 56 56 57 57 56 57 56 56 56 55 54 54 52 52 52
45 48 54 55 55 55 56 55 54 56 58 58 57 56 56 55 55 54 55 55 55 55 55 56 55 57 57 56 55 54 54 52
45 48 53 55 55 55 55 55 54 54 55 56 57 57 56 56 56 55 54 54 55 55 54 55 55 55 56 56 55 55 55 54
43 47 52 55 55 55 56 54 54 54 54 55 56 57 56 56 56 56 54 54 54 55 55 55 55 55 55 56 56 54 54 55
46 48 51 54 55 55 56 56 55 54 55 56 56 57 56 56 56 56 56 54 53 53 54 55 56 56 55 55 55 55 55 55
49 50 51 52 53 55 55 55 55 56 56 56 57 57 57 57 56 56 56 56 54 53 53 54 54 55 56 55 55 54 55 54
50 52 52 53 53 54 55 55 54 55 56 56 56 56 57 57 56 56 57 56 56 54 53 53 53 54 55 55 55 55 54 54
47 50 52 53 54 54 55 55 54 56 56 55 55 56 56 56 56 56 56 56 56 56 55 54 53 53 53 54 54 54 53 54
45 45 47 48 50 52 53 55 56 56 56 56 55 55 56 55 56 56 56 56 56 56 56 55 54 54 52 52 53 53 53 53
42 43 43 45 46 47 48 49 50 54 56 57 56 56 57 57 57 57 57 57 56 56 56 55 55 54 54 53 52 52 52 52
41 40 40 40 41 43 43 45 46 48 49 52 54 56 56 56 56 56 56 57 56 56 56 56 55 54 48 45 50 53 52 52
39 38 37 37 38 40 40 40 41 41 42 43 44 46 47 49 52 56 56 55 56 56 56 56 55 55 48 45 44 52 52 52
37 36 36 36 37 38 38 38 38 38 37 37 39 40 42 44 45 46 47 51 56 56 56 56 56 56 48 47 45 51 52 52

GFSFLT1_sfc_dewp_090.txt.gz
Dewpoint
27 48 55 59 60 61 60 59 57 57 57 57 59 61 61 62 62 63 62 61 60 59 58 56 55 54 53 51 50 53 53 53
28 47 57 59 60 60 59 58 57 57 57 56 57 58 60 60 61 62 62 61 59 57 56 55 53 52 52 51 51 52 52 53
47 56 58 59 59 60 59 58 57 56 56 56 56 59 59 60 61 61 62 60 58 57 56 54 51 51 52 50 51 51 51 53
49 56 57 58 59 59 58 58 57 56 56 56 57 58 58 58 59 60 61 60 58 58 57 55 52 51 52 52 50 50 50 51
48 55 57 57 58 58 58 57 57 56 56 56 55 55 55 57 58 59 60 59 58 58 56 55 53 52 53 52 51 51 52 50
47 54 56 57 58 58 58 57 57 57 56 55 55 55 55 57 58 58 58 59 58 58 57 55 54 53 53 53 52 52 52 51
42 51 55 57 57 57 57 57 56 56 56 56 55 55 55 56 57 57 57 57 58 58 58 56 54 54 54 54 54 52 52 52
41 50 54 56 56 55 56 56 55 56 56 55 55 56 55 55 56 56 57 57 56 58 57 57 55 51 49 54 54 53 52 52
42 49 54 55 55 55 55 56 56 56 55 55 55 56 56 55 55 55 55 56 56 56 57 57 55 55 54 55 54 53 53 52
36 46 52 54 54 55 55 55 54 55 55 56 56 55 55 55 55 55 55 54 56 55 55 56 56 55 56 55 54 55 55 54
34 45 52 54 55 54 55 55 54 54 54 54 55 55 56 56 56 55 54 54 54 54 54 54 55 54 55 56 55 55 55 55
48 50 53 54 54 54 54 54 54 54 54 55 55 56 56 57 56 55 54 54 53 54 54 54 54 55 55 54 55 55 54 54
52 52 53 54 54 54 54 55 53 54 55 55 55 54 56 56 56 56 56 55 54 53 53 54 54 54 55 54 54 54 54 54
46 49 52 53 54 54 55 55 55 55 55 55 55 55 55 56 56 57 57 56 56 55 53 53 53 53 54 55 55 54 54 54
43 44 45 48 49 50 52 53 56 56 56 55 55 56 55 55 56 56 57 57 56 56 56 55 54 53 53 53 54 54 54 54
39 39 41 43 44 46 47 48 50 57 57 56 56 55 56 56 55 55 56 56 56 56 56 55 55 54 54 53 53 53 53 53
37 37 37 38 39 40 41 41 42 45 46 46 46 48 54 55 56 56 56 56 56 56 56 55 55 55 48 45 50 52 52 52
37 36 36 37 38 38 38 38 38 38 39 39 41 43 44 45 46 47 48 51 56 57 56 56 56 55 47 46 44 52 53 52
36 34 34 34 36 37 37 36 35 35 34 34 34 37 38 39 40 41 43 44 46 49 50 54 56 56 42 43 43 51 53 53

GFSFLT1_sfc_dewp_096.txt.gz
Dewpoint
29 31 35 41 48 56 60 63 64 64 64 64 64 64 63 64 63 63 63 64 63 63 63 62 60 59 59 60 60 61 59 56
30 33 35 39 46 54 59 62 63 63 62 62 62 62 62 63 63 63 63 63 62 62 62 61 60 58 58 59 60 59 59 57
31 33 35 42 46 53 58 60 62 62 62 62 61 60 61 61 63 63 63 62 60 61 61 60 59 58 58 59 59 58 57 57
30 32 36 42 50 53 56 60 60 62 62 60 60 59 59 60 61 62 61 60 60 59 60 60 59 59 58 59 59 58 55 56
39 36 34 39 50 54 56 60 59 61 62 60 60 57 56 58 58 59 61 61 59 59 59 59 59 59 59 57 58 58 57 55
44 42 38 37 48 55 58 60 59 60 60 60 59 58 55 57 58 60 61 60 60 59 59 59 59 59 58 59 59 59 57 56
45 47 42 39 48 57 59 59 58 59 60 60 59 58 56 56 58 59 59 59 59 58 57 57 58 58 58 57 57 57 56 57
46 46 47 42 51 57 59 58 58 58 59 59 59 58 56 57 57 58 59 58 58 57 57 56 56 57 56 55 56 55 56 56
46 48 50 47 50 56 58 58 58 58 58 58 58 57 56 56 57 58 59 59 58 58 57 57 56 56 56 56 55 55 56 57
46 48 52 50 50 56 58 57 57 57 57 58 57 57 57 56 58 58 58 59 58 58 57 57 56 55 54 53 52 54 54 55
44 45 52 48 50 56 58 58 57 57 57 57 57 57 57 57 58 57 57 59 59 58 58 56 55 55 55 54 52 52 52 54
41 43 50 50 52 56 57 57 56 57 57 57 57 57 57 58 57 58 57 58 58 58 58 57 55 54 53 53 52 52 52 53
40 41 46 52 53 55 56 56 56 56 57 56 57 56 57 57 57 57 57 57 57 58 58 57 56 55 54 51 51 51 51 50
38 39 41 44 47 53 55 56 56 58 57 57 57 55 56 56 57 58 58 58 58 58 58 57 57 57 56 55 54 53 53 53
36 36 39 40 42 43 45 52 56 56 56 56 55 55 55 56 57 57 57 57 57 57 57 58 58 57 57 57 57 57 57 56
35 35 36 39 39 40 41 42 44 52 53 53 55 56 56 56 57 56 57 58 57 56 56 56 57 57 55 57 56 56 56 56
35 35 34 37 37 37 38 39 40 41 41 42 44 46 47 48 49 50 53 54 56 57 57 57 56 44 36 38 46 56 56 55
33 33 34 35 37 35 36 37 38 37 38 37 38 39 41 43 44 44 45 47 48 46 45 41 38 36 35 36 36 48 55 56
33 32 33 34 36 36 34 34 34 37 36 35 36 37 37 39 39 41 43 43 41 39 38 39 36 33 34 34 34 44 48 51

GFSFLT1_sfc_dewp_099.txt.gz
Dewpoint
25 26 28 32 38 46 53 61 65 66 65 64 64 64 64 64 63 62 62 64 64 64 65 64 64 63 62 62 61 61 61 58
29 31 31 34 39 46 53 60 64 65 64 62 63 63 63 63 63 62 62 63 64 64 63 62 61 60 60 61 61 59 59 61
30 32 34 36 38 41 48 56 61 64 63 62 62 62 62 62 62 61 61 62 64 63 62 61 60 60 59 60 60 59 60 59
31 32 35 38 39 44 44 52 58 64 64 62 61 61 61 61 62 61 62 63 64 62 62 61 60 60 59 59 60 59 58 59
39 39 40 39 40 43 48 50 55 63 63 61 61 58 59 59 59 58 62 62 60 60 60 61 60 59 59 59 61 59 59 56
42 43 43 42 41 43 51 52 55 62 62 61 60 59 58 57 57 59 61 61 60 59 59 60 59 59 59 59 59 60 59 57
43 45 46 45 43 46 52 54 59 61 61 61 61 60 58 55 56 59 61 60 59 59 60 59 59 59 59 60 61 60 59 58
43 44 46 49 49 43 50 55 59 60 61 61 61 60 58 56 57 58 60 59 59 58 59 59 59 60 59 59 59 59 60 59
42 44 48 50 51 47 51 56 58 59 60 60 60 60 57 55 57 58 59 59 59 58 58 57 57 58 59 58 58 57 58 58
42 45 47 50 52 50 53 58 57 58 59 61 60 59 57 55 58 59 59 60 59 59 58 56 57 57 57 57 57 57 57 57
41 43 44 47 50 49 56 59 58 59 59 59 59 58 57 57 59 59 60 60 59 59 58 57 56 56 57 57 56 56 56 57
40 39 40 43 47 50 59 57 58 58 59 58 59 58 57 57 58 59 58 59 59 58 57 57 56 55 55 54 55 53 54 54
37 36 38 39 42 51 57 57 57 58 58 58 58 58 57 57 58 58 59 59 59 59 58 57 56 55 55 54 54 52 51 52
35 34 36 38 39 42 48 58 57 58 58 57 57 57 56 57 58 58 58 58 57 58 58 57 56 55 55 55 54 54 53 53
37 35 34 37 38 39 41 46 52 57 57 57 57 57 57 57 57 57 58 57 57 57 58 57 57 57 55 54 53 53 54 54
35 35 35 35 36 36 38 40 42 46 47 50 53 57 56 57 57 58 57 57 58 58 58 58 58 57 48 50 55 55 56 55
34 34 35 35 36 35 36 38 39 40 40 41 45 47 46 47 50 51 56 56 55 54 50 54 44 37 36 37 40 56 57 56
33 33 33 35 35 36 35 35 37 37 38 38 39 42 43 43 45 45 44 44 43 44 41 38 36 35 34 35 35 48 56 55
34 32 33 33 35 35 35 35 35 35 35 36 38 39 39 40 41 41 39 38 37 38 37 36 34 33 34 35 35 46 42 37

GFSFLT1_sfc_dewp_102.txt.gz
Dewpoint
28 28 28 30 34 49 65 66 66 66 66 67 65 65 64 64 64 64 64 66 65 65 64 64 64 64 63 63 61 61 61 60
30 35 35 42 45 50 60 65 67 66 64 64 63 63 63 63 63 63 63 64 64 64 64 63 63 62 62 62 61 60 60 60
34 37 40 44 46 47 51 62 66 65 64 63 63 62 63 62 62 63 63 63 64 64 63 63 63 62 61 61 60 59 59 60
33 38 44 49 49 51 46 54 63 65 64 63 62 63 62 62 62 62 62 62 63 63 63 62 61 61 60 60 60 58 57 59
39 41 44 47 50 51 50 48 55 64 64 62 62 61 60 61 61 61 62 62 63 63 62 62 61 60 60 60 61 59 58 57
42 43 45 46 50 51 53 51 50 63 63 63 62 61 61 60 60 60 62 62 61 60 60 61 60 60 60 60 60 60 59 57
43 44 46 46 50 53 54 54 51 63 64 63 62 61 60 59 59 59 60 59 60 59 59 60 60 60 59 59 59 59 59 59
42 42 44 47 50 52 54 51 52 63 63 62 62 62 61 60 57 58 59 59 58 58 59 59 59 59 59 60 60 60 59 59
42 42 44 45 48 50 53 53 53 62 62 62 62 61 61 59 57 59 59 58 58 58 59 59 59 59 60 60 60 60 59 59
40 41 41 42 45 47 50 51 55 60 61 61 62 61 61 59 59 60 59 59 59 58 58 58 58 59 59 58 57 57 58 58
39 38 38 40 41 44 49 53 59 59 59 60 60 60 60 59 59 60 60 59 58 58 57 57 57 57 57 58 57 57 57 57
37 36 37 38 39 41 45 57 58 59 59 59 60 60 58 59 59 59 59 60 59 58 57 57 56 57 57 57 57 57 56 56
36 35 36 37 37 39 41 44 58 59 59 59 59 59 58 58 59 59 60 59 58 57 58 56 56 56 56 56 55 56 55 55
36 36 35 36 36 36 38 41 43 58 59 59 58 58 57 57 58 59 59 59 58 58 57 57 56 55 55 55 55 54 54 54
34 34 35 35 35 35 36 38 41 44 58 58 57 57 57 57 59 59 58 58 58 58 58 57 56 55 55 55 55 54 53 53
34 34 33 35 35 35 35 36 38 40 42 44 48 54 57 58 58 58 58 57 57 58 58 57 55 53 43 49 54 54 54 53
33 34 34 33 35 34 35 35 37 37 38 39 41 44 46 49 50 53 52 50 49 47 47 43 40 36 36 37 41 54 54 54
33 33 33 33 33 34 34 34 35 35 36 37 38 39 40 42 42 42 42 43 42 40 38 37 35 35 35 37 36 49 45 43
34 33 33 33 33 33 34 34 34 34 35 35 37 37 38 37 37 37 36 37 37 36 35 34 34 33 35 37 39 39 36 34

GFSFLT1_sfc_dewp_108.txt.gz
Dewpoint
24 25 23 23 42 62 64 65 65 66 65 65 64 64 64 65 64 64 65 65 64 63 63 62 62 62 62 62 62 62 60 60
26 25 28 26 37 60 63 64 65 65 65 64 63 62 63 64 64 64 64 65 64 63 63 62 62 61 62 62 61 60 59 60
26 29 37 40 40 58 63 64 65 65 65 65 64 63 63 63 64 64 64 64 64 64 63 62 61 60 61 61 60 60 59 60
44 45 46 48 50 53 63 63 64 64 64 64 62 62 61 61 61 62 63 64 63 63 63 62 61 61 61 61 61 59 58 60
43 44 43 44 47 49 50 63 64 64 62 64 62 62 61 61 61 61 62 63 63 62 62 61 61 62 62 62 62 61 58 57
40 40 40 41 43 44 47 47 54 57 63 63 62 61 61 60 60 60 61 62 62 62 61 61 61 62 62 61 61 61 60 58
37 37 38 39 40 41 43 44 46 49 54 63 62 61 60 60 60 59 60 60 61 62 61 61 61 61 60 60 61 60 60 59
35 35 36 37 38 39 41 42 43 45 47 53 62 61 60 60 60 60 60 60 60 61 61 61 61 61 60 60 60 61 60 60
35 35 35 36 37 38 39 40 42 44 46 48 60 62 61 60 60 60 60 59 60 59 59 59 59 59 60 60 60 60 60 60
35 35 35 36 37 37 38 39 40 42 46 47 54 62 61 60 60 60 60 60 58 58 58 58 57 58 58 59 59 59 59 59
34 34 35 36 36 37 38 39 39 42 46 51 55 62 61 60 59 59 59 59 58 57 57 57 57 58 58 59 58 59 59 59
34 34 34 35 36 37 38 38 38 40 45 54 60 60 59 59 59 59 59 58 58 57 57 58 58 58 58 58 58 59 58 58
33 34 34 34 34 35 37 38 38 40 43 47 58 59 58 58 59 59 58 58 57 57 57 57 56 57 57 57 57 58 58 58
33 33 33 34 34 34 35 37 38 39 40 42 46 49 58 58 58 58 58 58 57 57 57 57 56 56 57 57 57 57 57 57
31 32 33 33 34 34 34 35 37 37 38 40 40 42 47 56 58 59 58 58 57 57 57 57 57 57 57 56 56 56 56 56
31 32 32 33 33 33 33 34 35 36 36 37 38 40 41 44 50 59 59 58 58 58 57 56 56 55 48 54 56 56 56 56
29 31 31 32 32 32 32 33 33 34 35 35 36 37 38 39 40 44 45 45 44 44 43 42 42 40 37 38 43 55 55 55
29 30 31 32 32 33 32 32 33 32 32 34 34 35 35 36 37 36 37 38 40 38 38 39 39 38 38 39 41 47 44 43
28 28 31 31 32 32 31 31 31 31 31 31 33 34 33 34 34 33 33 33 34 34 35 36 36 35 36 36 36 36 35 35